CPA271 VHHH-EHAM

Flight info

Callsign CPA271
Flight time N/A
Altitude 34100
Route BEKOL A461 SHL W22 TEPID W24 OSNOV G586 QP B330 ELKAL W179 IGNAK/K0922S1010 W179 WFX/K0920S1040 W179 OMBON W195 VIDEK/K0917S1010 W195 LAXAL/K0911S1040 W195 IDOPA W197 ANDIM B215 IBANO G470 AKLAS W192 FKG A368 SARIN/K0909F340 N161 ALZIS/K0902F360 N161 GASBI/N0488F360 N161 LEYLA T916 MATAL M11 REBLO UM11 TBN UL851 OLUPO/N0485F380 UM10 GOKPA UL746 ODERO L746 LUGEB DCT BADOR DCT PITOK DCT MAKAL DCT LALUK DCT NORKU
Aircraft A35K/H-SDE2E3GHIJ3J4J5LM1ORWXY/LB1D1

Departure

Time N/A
Airport Hong Kong International Airport (VHHH)

Arrival

Time 2026-04-28 21:05
Airport Amsterdam Airport Schiphol (EHAM)
Time Latitude Longitude Altitude Speed Heading
2026-04-28 18:10 42.64568 30.21134 38155 ft 452 kts 308°
2026-04-28 18:10 42.66606 30.17874 38151 ft 453 kts 309°
2026-04-28 18:11 42.70807 30.11472 38151 ft 453 kts 310°
2026-04-28 18:11 42.75028 30.05100 38151 ft 453 kts 310°
2026-04-28 18:12 42.79203 29.98735 38155 ft 453 kts 310°
2026-04-28 18:12 42.83376 29.92328 38153 ft 452 kts 310°
2026-04-28 18:13 42.86833 29.87001 38153 ft 451 kts 310°
2026-04-28 18:13 42.90992 29.80579 38167 ft 451 kts 309°
2026-04-28 18:14 42.95152 29.74144 38152 ft 451 kts 309°
2026-04-28 18:14 42.99270 29.67762 38153 ft 450 kts 309°
2026-04-28 18:15 43.03405 29.61338 38154 ft 449 kts 309°
2026-04-28 18:15 43.07530 29.54916 38154 ft 449 kts 309°
2026-04-28 18:16 43.11659 29.48473 38154 ft 449 kts 309°
2026-04-28 18:16 43.15779 29.42030 38153 ft 449 kts 309°
2026-04-28 18:17 43.19896 29.35577 38157 ft 449 kts 309°
2026-04-28 18:17 43.23985 29.29154 38157 ft 449 kts 309°
2026-04-28 18:18 43.28092 29.22690 38157 ft 448 kts 309°
2026-04-28 18:18 43.31493 29.17325 38156 ft 448 kts 309°
2026-04-28 18:19 43.36270 29.09773 38157 ft 448 kts 309°
2026-04-28 18:19 43.40351 29.03304 38163 ft 448 kts 309°
2026-04-28 18:20 43.44422 28.96838 38151 ft 446 kts 309°
2026-04-28 18:20 43.48482 28.90375 38151 ft 446 kts 309°
2026-04-28 18:21 43.52541 28.83897 38148 ft 446 kts 309°
2026-04-28 18:21 43.56588 28.77425 38143 ft 446 kts 309°
2026-04-28 18:22 43.60605 28.70988 38143 ft 445 kts 309°
2026-04-28 18:22 43.64643 28.64502 38137 ft 445 kts 309°
2026-04-28 18:23 43.68673 28.58014 38132 ft 445 kts 309°
2026-04-28 18:23 43.72696 28.51522 38132 ft 444 kts 309°
2026-04-28 18:24 43.76075 28.46179 38123 ft 444 kts 310°
2026-04-28 18:24 43.81010 28.38887 38115 ft 444 kts 311°
2026-04-28 18:25 43.85243 28.32652 38119 ft 444 kts 311°
2026-04-28 18:26 43.91535 28.23246 38109 ft 442 kts 311°
2026-04-28 18:26 43.95683 28.17001 38104 ft 442 kts 310°
2026-04-28 18:27 43.99874 28.10676 38099 ft 442 kts 310°
2026-04-28 18:27 44.04006 28.04430 38109 ft 442 kts 310°
2026-04-28 18:28 44.08168 27.98127 38091 ft 441 kts 310°
2026-04-28 18:28 44.12307 27.91843 38091 ft 440 kts 310°
2026-04-28 18:29 44.16450 27.85539 38084 ft 441 kts 310°
2026-04-28 18:29 44.20586 27.79231 38071 ft 441 kts 310°
2026-04-28 18:30 44.24717 27.72917 38079 ft 441 kts 310°
2026-04-28 18:30 44.28825 27.66625 38074 ft 441 kts 310°
2026-04-28 18:31 44.32948 27.60296 38073 ft 441 kts 310°
2026-04-28 18:31 44.37072 27.53951 38090 ft 441 kts 310°
2026-04-28 18:32 44.41186 27.47607 38068 ft 440 kts 310°
2026-04-28 18:32 44.45298 27.41250 38067 ft 440 kts 310°
2026-04-28 18:33 44.49400 27.34895 38073 ft 440 kts 310°
2026-04-28 18:33 44.53507 27.28519 38069 ft 439 kts 310°
2026-04-28 18:34 44.57581 27.22180 38068 ft 436 kts 310°
2026-04-28 18:34 44.61607 27.15899 38068 ft 435 kts 310°
2026-04-28 18:35 44.65682 27.09527 38068 ft 435 kts 310°
2026-04-28 18:35 44.69703 27.03227 38068 ft 435 kts 310°
2026-04-28 18:36 44.73748 26.96876 38073 ft 436 kts 309°
2026-04-28 18:36 44.77796 26.90503 38070 ft 436 kts 309°
2026-04-28 18:37 44.81844 26.84118 38069 ft 436 kts 309°
2026-04-28 18:37 44.85883 26.77731 38070 ft 436 kts 309°
2026-04-28 18:38 44.89914 26.71344 38070 ft 436 kts 309°
2026-04-28 18:38 44.93923 26.64977 38070 ft 436 kts 309°
2026-04-28 18:39 44.97949 26.58567 38069 ft 436 kts 309°
2026-04-28 18:39 45.01968 26.52155 38055 ft 436 kts 310°
2026-04-28 18:40 45.05989 26.45723 38068 ft 436 kts 310°
2026-04-28 18:40 45.10005 26.39289 38071 ft 435 kts 309°
2026-04-28 18:41 45.14000 26.32870 38069 ft 435 kts 309°
2026-04-28 18:41 45.17993 26.26438 38061 ft 434 kts 309°
2026-04-28 18:42 45.21959 26.20036 38069 ft 435 kts 309°
2026-04-28 18:42 45.25948 26.13583 38070 ft 435 kts 309°
2026-04-28 18:43 45.29941 26.07109 38068 ft 435 kts 309°
2026-04-28 18:43 45.33926 26.00630 38073 ft 435 kts 309°
2026-04-28 18:44 45.37903 25.94153 38073 ft 435 kts 309°
2026-04-28 18:44 45.43842 25.84451 38080 ft 435 kts 309°
2026-04-28 18:45 45.47822 25.77928 38072 ft 436 kts 309°
2026-04-28 18:45 45.51800 25.71393 38074 ft 437 kts 309°
2026-04-28 18:46 45.55779 25.64841 38075 ft 437 kts 309°
2026-04-28 18:46 45.59756 25.58279 38078 ft 436 kts 309°
2026-04-28 18:47 45.63724 25.51716 38085 ft 436 kts 309°
2026-04-28 18:47 45.67666 25.45181 38088 ft 436 kts 309°
2026-04-28 18:48 45.71616 25.38618 38133 ft 434 kts 309°
2026-04-28 18:48 45.75556 25.32053 38120 ft 434 kts 309°
2026-04-28 18:49 45.78186 25.27663 38121 ft 434 kts 309°
2026-04-28 18:49 45.83426 25.18883 38088 ft 435 kts 309°
2026-04-28 18:50 45.87351 25.12288 38091 ft 434 kts 309°
2026-04-28 18:50 45.91260 25.05712 38094 ft 433 kts 309°
2026-04-28 18:51 45.95167 24.99125 38091 ft 433 kts 309°
2026-04-28 18:51 45.99074 24.92522 38094 ft 433 kts 308°
2026-04-28 18:52 46.02948 24.85961 38094 ft 431 kts 308°
2026-04-28 18:52 46.06827 24.79376 38094 ft 430 kts 308°
2026-04-28 18:53 46.10695 24.72792 38097 ft 430 kts 308°
2026-04-28 18:53 46.14558 24.66202 38097 ft 430 kts 308°
2026-04-28 18:54 46.18393 24.59643 38095 ft 430 kts 308°
2026-04-28 18:54 46.22243 24.53043 38102 ft 429 kts 308°
2026-04-28 18:55 46.25443 24.47546 38100 ft 429 kts 308°
2026-04-28 18:55 46.29927 24.39825 38099 ft 429 kts 308°
2026-04-28 18:56 46.33764 24.33199 38103 ft 429 kts 308°
2026-04-28 18:56 46.37595 24.26570 38102 ft 429 kts 308°
2026-04-28 18:57 46.41417 24.19940 38099 ft 429 kts 308°
2026-04-28 18:57 46.45242 24.13289 38100 ft 429 kts 308°
2026-04-28 18:58 46.48414 24.07760 38110 ft 429 kts 308°
2026-04-28 18:58 46.52232 24.01090 38097 ft 430 kts 308°
2026-04-28 18:59 46.56063 23.94382 38102 ft 432 kts 308°
2026-04-28 18:59 46.59892 23.87663 38103 ft 432 kts 308°
2026-04-28 19:00 46.63694 23.80974 38104 ft 432 kts 308°
2026-04-28 19:00 46.67526 23.74217 38148 ft 432 kts 308°
2026-04-28 19:01 46.71349 23.67456 38157 ft 432 kts 308°
2026-04-28 19:01 46.75165 23.60692 38157 ft 432 kts 308°
2026-04-28 19:02 46.78987 23.53901 38153 ft 432 kts 308°
2026-04-28 19:02 46.82775 23.47155 38146 ft 432 kts 307°
2026-04-28 19:03 46.86580 23.40361 38133 ft 431 kts 308°
2026-04-28 19:03 46.90376 23.33566 38114 ft 432 kts 308°
2026-04-28 19:04 46.94172 23.26753 38129 ft 432 kts 308°
2026-04-28 19:04 46.97970 23.19921 38117 ft 432 kts 307°
2026-04-28 19:05 47.01760 23.13086 38123 ft 432 kts 307°
2026-04-28 19:05 47.05548 23.06238 38130 ft 431 kts 307°
2026-04-28 19:06 47.09323 22.99397 38129 ft 431 kts 307°
2026-04-28 19:06 47.13095 22.92542 38132 ft 431 kts 307°
2026-04-28 19:07 47.16841 22.85719 38123 ft 431 kts 307°
2026-04-28 19:07 47.20600 22.78854 38135 ft 430 kts 307°
2026-04-28 19:08 47.24348 22.71991 38138 ft 430 kts 307°
2026-04-28 19:08 47.28100 22.65106 38138 ft 431 kts 307°
2026-04-28 19:09 47.31850 22.58207 38135 ft 431 kts 307°
2026-04-28 19:09 47.35597 22.51296 38132 ft 432 kts 307°
2026-04-28 19:10 47.39350 22.44357 38141 ft 432 kts 307°
2026-04-28 19:10 47.43073 22.37454 38140 ft 432 kts 307°
2026-04-28 19:11 47.46816 22.30498 38140 ft 432 kts 307°
2026-04-28 19:11 47.50556 22.23530 38141 ft 432 kts 307°
2026-04-28 19:12 47.54296 22.16543 38146 ft 434 kts 307°
2026-04-28 19:12 47.58042 22.09518 38179 ft 434 kts 307°
2026-04-28 19:13 47.61464 22.02144 38150 ft 435 kts 302°
2026-04-28 19:13 47.64672 21.94598 38151 ft 435 kts 302°
2026-04-28 19:14 47.67946 21.87012 38155 ft 435 kts 303°
2026-04-28 19:14 47.71225 21.79552 38162 ft 433 kts 303°
2026-04-28 19:15 47.72885 21.75791 38351 ft 433 kts 303°
2026-04-28 19:15 47.74536 21.72052 38631 ft 433 kts 303°
2026-04-28 19:15 47.76188 21.68302 38808 ft 434 kts 303°
2026-04-28 19:15 47.77286 21.65806 38913 ft 435 kts 303°
2026-04-28 19:16 47.79500 21.60765 39110 ft 435 kts 303°
2026-04-28 19:16 47.81152 21.56996 39272 ft 436 kts 303°
2026-04-28 19:16 47.82805 21.53219 39488 ft 434 kts 303°
2026-04-28 19:16 47.84428 21.49504 39702 ft 433 kts 303°
2026-04-28 19:17 47.86073 21.45733 39817 ft 434 kts 303°
2026-04-28 19:17 47.87719 21.41954 39927 ft 435 kts 303°
2026-04-28 19:17 47.89368 21.38164 40051 ft 436 kts 303°
2026-04-28 19:17 47.91018 21.34366 40150 ft 437 kts 303°
2026-04-28 19:18 47.94335 21.26715 40172 ft 439 kts 302°
2026-04-28 19:18 47.97633 21.19088 40170 ft 439 kts 302°
2026-04-28 19:19 48.00940 21.11417 40181 ft 439 kts 303°
2026-04-28 19:19 48.04244 21.03731 40179 ft 439 kts 302°
2026-04-28 19:20 48.07539 20.96045 40182 ft 439 kts 302°
2026-04-28 19:20 48.10833 20.88341 40173 ft 439 kts 302°
2026-04-28 19:21 48.14091 20.80696 40186 ft 438 kts 302°
2026-04-28 19:21 48.17357 20.73015 40190 ft 437 kts 302°
2026-04-28 19:22 48.20091 20.66566 40189 ft 437 kts 302°
2026-04-28 19:22 48.23877 20.57608 40194 ft 437 kts 302°
2026-04-28 19:23 48.27133 20.49885 40195 ft 438 kts 302°
2026-04-28 19:23 48.30387 20.42141 40192 ft 439 kts 302°
2026-04-28 19:24 48.33648 20.34377 40198 ft 439 kts 302°
2026-04-28 19:24 48.36960 20.26729 40197 ft 439 kts 303°
2026-04-28 19:25 48.40317 20.19038 40190 ft 439 kts 303°
2026-04-28 19:25 48.43666 20.11312 40192 ft 442 kts 303°
2026-04-28 19:26 48.47019 20.03523 40189 ft 443 kts 303°
2026-04-28 19:26 48.50361 19.95731 40195 ft 443 kts 303°
2026-04-28 19:27 48.53696 19.87933 40190 ft 443 kts 302°
2026-04-28 19:27 48.57013 19.80155 40188 ft 444 kts 303°
2026-04-28 19:28 48.60355 19.72299 40184 ft 444 kts 302°
2026-04-28 19:28 48.63695 19.64422 40190 ft 445 kts 302°
2026-04-28 19:29 48.66466 19.57870 40192 ft 445 kts 302°
2026-04-28 19:29 48.70351 19.48657 40186 ft 444 kts 302°
2026-04-28 19:30 48.73679 19.40740 40195 ft 446 kts 302°
2026-04-28 19:30 48.77004 19.32807 40194 ft 446 kts 302°
2026-04-28 19:31 48.80306 19.24905 40207 ft 446 kts 302°
2026-04-28 19:31 48.83634 19.16917 40204 ft 447 kts 302°
2026-04-28 19:32 48.86954 19.08923 40204 ft 446 kts 302°
2026-04-28 19:32 48.90254 19.00954 40206 ft 445 kts 302°
2026-04-28 19:33 48.93549 18.92974 40209 ft 445 kts 302°
2026-04-28 19:33 48.96837 18.84987 40216 ft 445 kts 302°
2026-04-28 19:34 49.00117 18.76996 40206 ft 445 kts 302°
2026-04-28 19:34 49.03371 18.69046 40220 ft 444 kts 302°
2026-04-28 19:35 49.06628 18.61062 40209 ft 443 kts 302°
2026-04-28 19:35 49.09878 18.53071 40217 ft 443 kts 302°
2026-04-28 19:36 49.13125 18.45066 40222 ft 443 kts 302°
2026-04-28 19:36 49.16366 18.37049 40219 ft 443 kts 302°
2026-04-28 19:37 49.19055 18.30381 40232 ft 444 kts 302°
2026-04-28 19:37 49.22841 18.20962 40219 ft 448 kts 302°
2026-04-28 19:38 49.26096 18.12827 40227 ft 448 kts 301°
2026-04-28 19:38 49.29312 18.04647 40224 ft 448 kts 301°
2026-04-28 19:39 49.32511 17.96455 40229 ft 448 kts 301°
2026-04-28 19:39 49.35722 17.88227 40230 ft 448 kts 301°
2026-04-28 19:40 49.38926 17.80001 40227 ft 448 kts 301°
2026-04-28 19:40 49.42102 17.71825 40233 ft 448 kts 301°
2026-04-28 19:41 49.45295 17.63580 40235 ft 448 kts 301°
2026-04-28 19:41 49.48477 17.55335 40236 ft 448 kts 301°
2026-04-28 19:42 49.51653 17.47082 40238 ft 448 kts 301°
2026-04-28 19:42 49.54293 17.40201 40238 ft 448 kts 301°
2026-04-28 19:43 49.57990 17.30535 40242 ft 449 kts 301°
2026-04-28 19:43 49.61156 17.22226 40234 ft 449 kts 301°
2026-04-28 19:44 49.64317 17.13907 40238 ft 449 kts 301°
2026-04-28 19:44 49.67453 17.05626 40238 ft 449 kts 301°
2026-04-28 19:45 49.70605 16.97277 40244 ft 449 kts 301°
2026-04-28 19:45 49.73219 16.90333 40235 ft 449 kts 301°
2026-04-28 19:46 49.76372 16.81932 40241 ft 448 kts 301°
2026-04-28 19:46 49.79478 16.73630 40241 ft 448 kts 301°
2026-04-28 19:47 49.82600 16.65256 40241 ft 448 kts 301°
2026-04-28 19:47 49.85714 16.56879 40241 ft 448 kts 301°
2026-04-28 19:48 49.88819 16.48500 40243 ft 448 kts 300°
2026-04-28 19:48 49.91917 16.40111 40244 ft 448 kts 300°
2026-04-28 19:49 49.95010 16.31710 40238 ft 448 kts 300°
2026-04-28 19:49 49.98097 16.23296 40238 ft 448 kts 300°
2026-04-28 19:50 50.02720 16.10643 40233 ft 449 kts 300°
2026-04-28 19:51 50.05785 16.02224 40241 ft 450 kts 300°
2026-04-28 19:51 50.08866 15.93730 40238 ft 451 kts 300°
2026-04-28 19:52 50.11947 15.85207 40238 ft 451 kts 300°
2026-04-28 19:52 50.15002 15.76731 40238 ft 451 kts 300°
2026-04-28 19:53 50.18068 15.68195 40238 ft 452 kts 300°
2026-04-28 19:53 50.21132 15.59633 40238 ft 452 kts 300°
2026-04-28 19:54 50.24197 15.51044 40237 ft 452 kts 300°
2026-04-28 19:54 50.27251 15.42455 40237 ft 452 kts 300°
2026-04-28 19:55 50.30283 15.33901 40226 ft 452 kts 300°
2026-04-28 19:55 50.33327 15.25281 40252 ft 453 kts 300°
2026-04-28 19:56 50.36377 15.16616 40237 ft 454 kts 300°
2026-04-28 19:56 50.39424 15.07931 40240 ft 455 kts 300°
2026-04-28 19:57 50.42466 14.99232 40241 ft 455 kts 300°
2026-04-28 19:57 50.45497 14.90532 40242 ft 454 kts 300°
2026-04-28 19:58 50.48506 14.81867 40246 ft 454 kts 300°
2026-04-28 19:58 50.51521 14.73154 40255 ft 454 kts 300°
2026-04-28 19:59 50.54531 14.64426 40255 ft 454 kts 299°
2026-04-28 19:59 50.57537 14.55679 40242 ft 454 kts 299°
2026-04-28 20:00 50.60537 14.46921 40257 ft 454 kts 299°
2026-04-28 20:00 50.63501 14.38235 40256 ft 453 kts 299°
2026-04-28 20:01 50.66480 14.29479 40266 ft 453 kts 299°
2026-04-28 20:01 50.69459 14.20691 40266 ft 454 kts 299°
2026-04-28 20:02 50.72427 14.11902 40258 ft 454 kts 299°
2026-04-28 20:02 50.75404 14.03061 40265 ft 457 kts 299°
2026-04-28 20:03 50.78381 13.94185 40265 ft 458 kts 299°
2026-04-28 20:03 50.81089 13.85126 40272 ft 459 kts 293°
2026-04-28 20:04 50.83385 13.75715 40274 ft 459 kts 292°
2026-04-28 20:04 50.85653 13.66263 40275 ft 459 kts 292°
2026-04-28 20:05 50.87905 13.56814 40293 ft 459 kts 292°
2026-04-28 20:05 50.90150 13.47343 40278 ft 459 kts 292°
2026-04-28 20:06 50.92384 13.37869 40277 ft 459 kts 292°
2026-04-28 20:06 50.94613 13.28377 40271 ft 459 kts 292°
2026-04-28 20:07 50.96839 13.18858 40284 ft 460 kts 292°
2026-04-28 20:07 50.99060 13.09319 40281 ft 460 kts 292°
2026-04-28 20:08 51.01256 12.99840 40284 ft 460 kts 292°
2026-04-28 20:08 51.03462 12.90280 40285 ft 460 kts 292°
2026-04-28 20:09 51.05658 12.80719 40287 ft 461 kts 291°
2026-04-28 20:09 51.07848 12.71138 40290 ft 461 kts 291°
2026-04-28 20:10 51.09949 12.61911 40290 ft 461 kts 291°
2026-04-28 20:10 51.12158 12.52159 40293 ft 461 kts 291°
2026-04-28 20:11 51.14292 12.42698 40290 ft 461 kts 291°
2026-04-28 20:11 51.16457 12.33059 40293 ft 462 kts 291°
2026-04-28 20:12 51.18615 12.23402 40295 ft 463 kts 291°
2026-04-28 20:12 51.20771 12.13714 40297 ft 463 kts 291°
2026-04-28 20:13 51.22915 12.04032 40300 ft 463 kts 291°
2026-04-28 20:13 51.25050 11.94345 40291 ft 463 kts 291°
2026-04-28 20:14 51.27021 11.85361 40304 ft 464 kts 291°
2026-04-28 20:14 51.28540 11.78414 40303 ft 465 kts 291°
2026-04-28 20:15 51.30666 11.68646 40306 ft 465 kts 291°
2026-04-28 20:15 51.32781 11.58882 40306 ft 465 kts 291°
2026-04-28 20:16 51.34888 11.49111 40300 ft 465 kts 291°
2026-04-28 20:16 51.36979 11.39369 40315 ft 466 kts 291°
2026-04-28 20:17 51.39077 11.29547 40309 ft 466 kts 291°
2026-04-28 20:17 51.41168 11.19707 40312 ft 466 kts 291°
2026-04-28 20:18 51.43249 11.09871 40309 ft 466 kts 291°
2026-04-28 20:18 51.45325 11.00010 40312 ft 467 kts 290°
2026-04-28 20:19 51.47395 10.90122 40301 ft 468 kts 290°
2026-04-28 20:19 51.49461 10.80210 40313 ft 468 kts 290°
2026-04-28 20:20 51.51506 10.70352 40316 ft 468 kts 290°
2026-04-28 20:20 51.53554 10.60424 40304 ft 468 kts 290°
2026-04-28 20:21 51.55600 10.50464 40310 ft 469 kts 290°
2026-04-28 20:21 51.57637 10.40492 40310 ft 469 kts 290°
2026-04-28 20:22 51.59655 10.30565 40314 ft 469 kts 290°
2026-04-28 20:22 51.61672 10.20593 40306 ft 469 kts 290°
2026-04-28 20:23 51.63685 10.10587 40302 ft 470 kts 290°
2026-04-28 20:23 51.65694 10.00553 40305 ft 471 kts 290°
2026-04-28 20:24 51.67699 9.90486 40311 ft 471 kts 290°
2026-04-28 20:24 51.69693 9.80418 40310 ft 471 kts 290°
2026-04-28 20:25 51.71665 9.70415 40288 ft 471 kts 290°
2026-04-28 20:25 51.73648 9.60304 40311 ft 472 kts 290°
2026-04-28 20:26 51.75619 9.50199 40305 ft 473 kts 289°
2026-04-28 20:26 51.77587 9.40057 40303 ft 473 kts 289°
2026-04-28 20:27 51.79545 9.29912 40307 ft 473 kts 289°
2026-04-28 20:27 51.81496 9.19746 40306 ft 473 kts 289°
2026-04-28 20:28 51.83439 9.09570 40300 ft 473 kts 289°
2026-04-28 20:28 51.85360 8.99456 40299 ft 473 kts 289°
2026-04-28 20:29 51.87285 8.89267 40304 ft 473 kts 289°
2026-04-28 20:29 51.89198 8.79082 40294 ft 473 kts 289°
2026-04-28 20:30 51.91110 8.68849 40302 ft 474 kts 289°
2026-04-28 20:30 51.92063 8.63729 40130 ft 473 kts 289°
2026-04-28 20:30 51.93008 8.58632 39905 ft 471 kts 289°
2026-04-28 20:30 51.93949 8.53548 39696 ft 471 kts 289°
2026-04-28 20:31 51.94888 8.48461 39581 ft 471 kts 289°
2026-04-28 20:31 51.95826 8.43367 39381 ft 471 kts 289°
2026-04-28 20:31 51.96752 8.38319 39160 ft 471 kts 289°
2026-04-28 20:31 51.97684 8.33226 38915 ft 471 kts 289°
2026-04-28 20:32 51.98615 8.28124 38668 ft 472 kts 289°
2026-04-28 20:32 51.99547 8.23009 38438 ft 474 kts 289°
2026-04-28 20:32 52.00479 8.17870 38219 ft 475 kts 289°
2026-04-28 20:32 52.01414 8.12708 38009 ft 477 kts 289°
2026-04-28 20:33 52.02346 8.07540 37526 ft 476 kts 289°
2026-04-28 20:33 52.03273 8.02384 36870 ft 475 kts 289°
2026-04-28 20:33 52.03885 7.98974 36432 ft 474 kts 289°
2026-04-28 20:33 52.04804 7.93839 35888 ft 471 kts 289°
2026-04-28 20:34 52.05713 7.88749 35377 ft 468 kts 289°
2026-04-28 20:34 52.06918 7.81977 34691 ft 464 kts 289°
2026-04-28 20:34 52.07798 7.77015 34181 ft 462 kts 289°
2026-04-28 20:34 52.08396 7.73636 33797 ft 460 kts 290°
2026-04-28 20:35 52.09277 7.68652 33284 ft 456 kts 290°
2026-04-28 20:35 52.10147 7.63711 32777 ft 452 kts 290°
2026-04-28 20:35 52.11007 7.58811 32286 ft 448 kts 290°
2026-04-28 20:35 52.11848 7.54010 31803 ft 445 kts 290°
2026-04-28 20:36 52.12691 7.49181 31301 ft 441 kts 290°
2026-04-28 20:36 52.13526 7.44393 30816 ft 438 kts 290°
2026-04-28 20:36 52.14351 7.39639 30310 ft 435 kts 290°
2026-04-28 20:36 52.15169 7.34920 29807 ft 431 kts 290°
2026-04-28 20:37 52.15978 7.30237 29344 ft 426 kts 290°
2026-04-28 20:37 52.16774 7.25620 28871 ft 421 kts 290°
2026-04-28 20:37 52.17560 7.21048 28412 ft 417 kts 289°
2026-04-28 20:37 52.18336 7.16526 27944 ft 412 kts 289°
2026-04-28 20:38 52.19102 7.12046 27507 ft 408 kts 289°
2026-04-28 20:38 52.19852 7.07653 27069 ft 405 kts 289°
2026-04-28 20:38 52.20610 7.03203 26628 ft 401 kts 289°
2026-04-28 20:38 52.21519 6.98900 26330 ft 405 kts 298°
2026-04-28 20:39 52.22900 6.95003 26022 ft 399 kts 310°
2026-04-28 20:39 52.24629 6.91426 25649 ft 401 kts 313°
2026-04-28 20:39 52.26408 6.87902 25309 ft 402 kts 313°
2026-04-28 20:39 52.28186 6.84370 24963 ft 401 kts 313°
2026-04-28 20:40 52.29945 6.80857 24616 ft 398 kts 313°
2026-04-28 20:40 52.31693 6.77356 24264 ft 396 kts 313°
2026-04-28 20:40 52.33425 6.73880 23919 ft 394 kts 313°
2026-04-28 20:40 52.35131 6.70458 23543 ft 392 kts 314°
2026-04-28 20:41 52.36843 6.67008 23184 ft 390 kts 314°
2026-04-28 20:41 52.38548 6.63567 22851 ft 387 kts 313°
2026-04-28 20:41 52.40236 6.60153 22534 ft 385 kts 313°
2026-04-28 20:41 52.41919 6.56749 22185 ft 383 kts 313°
2026-04-28 20:42 52.43593 6.53356 21853 ft 381 kts 313°
2026-04-28 20:42 52.45240 6.49976 21501 ft 380 kts 311°
2026-04-28 20:42 52.46562 6.46215 21183 ft 385 kts 294°
2026-04-28 20:42 52.47148 6.41917 20857 ft 389 kts 279°
2026-04-28 20:43 52.47384 6.37491 20511 ft 389 kts 277°
2026-04-28 20:43 52.47583 6.33075 20172 ft 387 kts 277°
2026-04-28 20:43 52.47786 6.28687 19846 ft 384 kts 277°
2026-04-28 20:43 52.47993 6.24323 19500 ft 382 kts 277°
2026-04-28 20:44 52.48200 6.20009 19171 ft 379 kts 277°
2026-04-28 20:44 52.48407 6.15710 18843 ft 376 kts 277°
2026-04-28 20:44 52.48609 6.11503 18505 ft 374 kts 277°
2026-04-28 20:44 52.48814 6.07209 18145 ft 371 kts 277°
2026-04-28 20:45 52.49012 6.03054 17829 ft 369 kts 277°
2026-04-28 20:45 52.49212 5.98853 17498 ft 368 kts 277°
2026-04-28 20:45 52.49409 5.94674 17178 ft 368 kts 277°
2026-04-28 20:45 52.49605 5.90473 16861 ft 368 kts 276°
2026-04-28 20:46 52.49798 5.86306 16539 ft 366 kts 276°
2026-04-28 20:46 52.49989 5.82144 16219 ft 365 kts 276°
2026-04-28 20:46 52.50177 5.78006 15910 ft 363 kts 276°
2026-04-28 20:46 52.50364 5.73886 15584 ft 361 kts 276°
2026-04-28 20:47 52.50548 5.69775 15270 ft 360 kts 276°
2026-04-28 20:47 52.50731 5.65685 14952 ft 358 kts 276°
2026-04-28 20:47 52.50910 5.61619 14655 ft 357 kts 276°
2026-04-28 20:47 52.50855 5.57598 14339 ft 357 kts 261°
2026-04-28 20:48 52.50002 5.53783 14093 ft 357 kts 242°
2026-04-28 20:48 52.48741 5.50273 13874 ft 358 kts 239°
2026-04-28 20:48 52.47439 5.46802 13642 ft 357 kts 238°
2026-04-28 20:48 52.46141 5.43326 13420 ft 356 kts 238°
2026-04-28 20:49 52.44855 5.39866 13201 ft 355 kts 239°
2026-04-28 20:49 52.43573 5.36410 12962 ft 355 kts 239°
2026-04-28 20:49 52.42292 5.32952 12756 ft 354 kts 238°
2026-04-28 20:49 52.41012 5.29502 12520 ft 352 kts 238°
2026-04-28 20:50 52.39743 5.26080 12296 ft 351 kts 238°
2026-04-28 20:50 52.38480 5.22680 12087 ft 349 kts 238°
2026-04-28 20:50 52.37220 5.19292 11848 ft 348 kts 238°
2026-04-28 20:50 52.35961 5.15912 11623 ft 347 kts 238°
2026-04-28 20:51 52.34708 5.12542 11390 ft 346 kts 238°
2026-04-28 20:51 52.33693 5.08992 11172 ft 345 kts 254°
2026-04-28 20:51 52.33392 5.05116 10970 ft 343 kts 269°
2026-04-28 20:51 52.33369 5.02567 10865 ft 335 kts 271°
2026-04-28 20:52 52.33361 4.97599 10613 ft 318 kts 270°
2026-04-28 20:52 52.33350 4.94081 10409 ft 308 kts 270°
2026-04-28 20:52 52.33334 4.90612 10161 ft 305 kts 270°
2026-04-28 20:52 52.33313 4.87111 9765 ft 304 kts 270°
2026-04-28 20:53 52.33256 4.80246 9158 ft 303 kts 270°
2026-04-28 20:53 52.33226 4.76809 8843 ft 301 kts 270°
2026-04-28 20:53 52.33195 4.73395 8547 ft 299 kts 270°
2026-04-28 20:54 52.33164 4.69997 8246 ft 297 kts 270°
2026-04-28 20:54 52.33133 4.66633 7936 ft 296 kts 270°
2026-04-28 20:54 52.33103 4.63256 7644 ft 296 kts 270°
2026-04-28 20:54 52.33067 4.59901 7347 ft 294 kts 270°
2026-04-28 20:55 52.33030 4.56558 7058 ft 294 kts 270°
2026-04-28 20:55 52.32993 4.53224 6678 ft 293 kts 270°
2026-04-28 20:55 52.32956 4.49897 6228 ft 292 kts 270°
2026-04-28 20:55 52.32918 4.46637 6023 ft 281 kts 270°
2026-04-28 20:56 52.32879 4.43506 5849 ft 270 kts 269°
2026-04-28 20:56 52.32567 4.40574 5592 ft 263 kts 247°
2026-04-28 20:56 52.31493 4.38274 5334 ft 252 kts 213°
2026-04-28 20:56 52.29931 4.37201 5081 ft 242 kts 185°
2026-04-28 20:57 52.28256 4.36917 4811 ft 241 kts 179°
2026-04-28 20:57 52.26584 4.36743 4559 ft 240 kts 179°
2026-04-28 20:57 52.24949 4.36808 4293 ft 230 kts 163°
2026-04-28 20:57 52.23595 4.37876 4134 ft 208 kts 134°
2026-04-28 20:58 52.22774 4.39664 3988 ft 192 kts 114°
2026-04-28 20:58 52.22207 4.41594 3855 ft 186 kts 111°
2026-04-28 20:58 52.21681 4.43483 3711 ft 177 kts 111°
2026-04-28 20:58 52.21192 4.45253 3573 ft 165 kts 110°
2026-04-28 20:59 52.20909 4.47007 3414 ft 157 kts 96°
2026-04-28 20:59 52.20845 4.48774 3247 ft 156 kts 92°
2026-04-28 20:59 52.20823 4.50526 3122 ft 152 kts 92°
2026-04-28 20:59 52.20898 4.52185 2949 ft 143 kts 78°
2026-04-28 21:00 52.21273 4.53661 2826 ft 140 kts 68°
2026-04-28 21:00 52.21743 4.55035 2653 ft 137 kts 66°
2026-04-28 21:00 52.22213 4.56321 2472 ft 126 kts 66°
2026-04-28 21:00 52.22663 4.57509 2310 ft 124 kts 65°
2026-04-28 21:01 52.23123 4.58698 2134 ft 124 kts 65°
2026-04-28 21:01 52.23581 4.59890 1959 ft 124 kts 65°
2026-04-28 21:01 52.24043 4.61093 1781 ft 123 kts 64°
2026-04-28 21:01 52.24493 4.62262 1620 ft 123 kts 64°
2026-04-28 21:02 52.24945 4.63437 1439 ft 123 kts 62°
2026-04-28 21:02 52.25401 4.64617 1286 ft 122 kts 63°
2026-04-28 21:02 52.25842 4.65795 1123 ft 121 kts 63°
2026-04-28 21:02 52.26288 4.66959 948 ft 120 kts 60°
2026-04-28 21:03 52.26744 4.68107 788 ft 121 kts 60°
2026-04-28 21:03 52.27190 4.69289 661 ft 124 kts 59°
2026-04-28 21:03 52.27652 4.70489 481 ft 125 kts 56°
2026-04-28 21:03 52.28115 4.71696 316 ft 126 kts 56°
2026-04-28 21:04 52.28590 4.72908 146 ft 127 kts 56°
2026-04-28 21:04 52.29067 4.74143 11 ft 128 kts 57°
2026-04-28 21:04 52.29497 4.75253 4 ft 107 kts 57°
2026-04-28 21:04 52.29837 4.76135 2 ft 73 kts 58°
2026-04-28 21:05 52.30062 4.76721 4 ft 53 kts 58°
2026-04-28 21:05 52.30200 4.77083 3 ft 23 kts 57°
2026-04-28 21:05 52.30284 4.77266 2 ft 18 kts 44°
2026-04-28 21:05 52.30383 4.77372 3 ft 14 kts 28°
2026-04-28 21:06 52.30457 4.77409 4 ft 9 kts 356°
2026-04-28 21:06 52.30518 4.77400 5 ft 9 kts 17°
2026-04-28 21:06 52.30564 4.77480 5 ft 11 kts 55°
2026-04-28 21:06 52.30618 4.77570 5 ft 11 kts 27°
2026-04-28 21:07 52.30702 4.77591 5 ft 14 kts
2026-04-28 21:07 52.30805 4.77604 5 ft 16 kts
2026-04-28 21:07 52.30865 4.77609 5 ft 0 kts
2026-04-28 21:08 52.30908 4.77612 5 ft 10 kts
2026-04-28 21:08 52.30922 4.77614 5 ft 0 kts
2026-04-28 21:08 52.30965 4.77617 5 ft 13 kts
2026-04-28 21:08 52.31081 4.77627 5 ft 20 kts
2026-04-28 21:09 52.31226 4.77640 5 ft 22 kts
2026-04-28 21:09 52.31363 4.77653 5 ft 18 kts
2026-04-28 21:09 52.31449 4.77631 5 ft 13 kts 338°
2026-04-28 21:09 52.31526 4.77535 5 ft 14 kts 315°
2026-04-28 21:10 52.31575 4.77388 5 ft 13 kts 278°
2026-04-28 21:10 52.31573 4.77219 5 ft 17 kts 267°
2026-04-28 21:10 52.31566 4.77005 5 ft 21 kts 266°
2026-04-28 21:10 52.31557 4.76757 5 ft 23 kts 266°
2026-04-28 21:11 52.31548 4.76505 5 ft 17 kts 267°
2026-04-28 21:11 52.31541 4.76295 5 ft 21 kts 267°
2026-04-28 21:11 52.31534 4.76105 5 ft 16 kts 266°
2026-04-28 21:11 52.31530 4.75986 5 ft 8 kts 266°
2026-04-28 21:12 52.31496 4.75925 5 ft 8 kts 195°
2026-04-28 21:12 52.31425 4.75923 5 ft 12 kts 178°
2026-04-28 21:12 52.31340 4.75930 5 ft 12 kts 177°
2026-04-28 21:12 52.31276 4.75935 5 ft 6 kts 177°
2026-04-28 21:13 52.31244 4.75906 5 ft 6 kts 237°
2026-04-28 21:13 52.31236 4.75846 5 ft 4 kts 265°
2026-04-28 21:13 52.31235 4.75823 5 ft 1 kts 266°
2026-04-28 21:13 52.31235 4.75821 5 ft 0 kts 266°